Weather History for Manchester, NH

Change the Weather History Date:

Saturday, January 18, 2014

  Actual Average Record
Temperature  
Mean Temperature 30 °F -  
Max Temperature 32 °F 29 °F 59 °F (2006)
Min Temperature 28 °F 5 °F -34 °F (1957)
Degree Days  
Heating Degree Days 35    
Moisture  
Dew Point 28 °F    
Average Humidity 88    
Maximum Humidity 96    
Minimum Humidity 79    
Precipitation  
Precipitation 0.48 in - - ()
Snow  
Snow 0.00 in - - ()
Snow Depth 6.00 in    
Sea Level Pressure  
Sea Level Pressure 29.75 in    
Wind  
Wind Speed 4 mph (NNW)    
Max Wind Speed 10 mph    
Max Gust Speed -    
Visibility 4 miles    
Events Fog , Snow    
Averages and records for this station are not official NWS values.
T = Trace of Precipitation, MM = Missing Value Source: NWS Daily Summary

Daily Weather History Graph

Daily Weather History Graph

Search for Another Location

Airport:

Trip Planner

Search our weather history database for the weather conditions in past years. The results will help you decide how hot, cold, wet, or windy it might be!

Date:

Astronomy

Jan. 18, 2014 Rise Set
Actual Time 7:12 AM EST 4:40 PM EST
Civil Twilight 6:41 AM EST 5:11 PM EST
Nautical Twilight 6:06 AM EST 5:46 PM EST
Astronomical Twilight 5:32 AM EST 6:20 PM EST
Moon 7:24 PM EST (1/18) 8:06 AM EST (1/18)
Length of Visible Light 10h 30m
Length of Day
9h 28m
Waning Gibbous, 94% of the Moon is Illuminated
Jan 18
Waning Gibbous
Jan 24
Last Quarter
Jan 30
New
Feb 6
First Quarter
Feb 14
Full

Hourly Weather History & Observations

Time (EST) Temp. Windchill Dew Point Humidity Pressure Visibility Wind Dir Wind Speed Gust Speed Precip Events Conditions
12:53 AM 30.0 °F 26.5 °F 24.1 °F 79% 29.95 in 10.0 mi North 3.5 mph - N/A   Overcast
1:53 AM 28.9 °F - 24.1 °F 82% 29.94 in 10.0 mi Calm Calm - N/A   Overcast
2:53 AM 28.9 °F - 25.0 °F 85% 29.94 in 10.0 mi Calm Calm - N/A   Overcast
3:53 AM 28.9 °F 23.9 °F 25.0 °F 85% 29.92 in 10.0 mi NNE 4.6 mph - N/A   Mostly Cloudy
4:53 AM 28.9 °F 23.9 °F 25.0 °F 85% 29.91 in 10.0 mi North 4.6 mph - N/A   Overcast
5:53 AM 28.9 °F - 25.0 °F 85% 29.91 in 9.0 mi Calm Calm - N/A   Overcast
6:53 AM 28.9 °F - 25.0 °F 85% 29.88 in 9.0 mi Calm Calm - N/A   Overcast
7:53 AM 30.0 °F 24.1 °F 25.0 °F 82% 29.84 in 8.0 mi North 5.8 mph - N/A   Overcast
8:53 AM 30.9 °F - 25.0 °F 79% 29.84 in 8.0 mi Calm Calm - N/A   Overcast
9:10 AM 30.9 °F 27.5 °F 25.0 °F 79% 29.79 in 7.0 mi WNW 3.5 mph - N/A   Overcast
9:35 AM 30.9 °F - 26.1 °F 82% 29.79 in 8.0 mi Calm Calm - N/A   Overcast
9:53 AM 30.9 °F 26.2 °F 26.1 °F 82% 29.85 in 4.0 mi West 4.6 mph - 0.00 in Snow Light Snow
10:53 AM 32.0 °F 26.4 °F 27.0 °F 82% 29.82 in 3.0 mi North 5.8 mph - 0.00 in Snow Light Snow
11:00 AM 32.0 °F 26.4 °F 27.0 °F 82% 29.75 in 1.8 mi North 5.8 mph - 0.00 in Snow Light Snow
11:18 AM 32.0 °F 26.4 °F 28.0 °F 85% 29.75 in 0.8 mi NNW 5.8 mph - 0.00 in Snow Light Snow
11:30 AM 30.9 °F 25.2 °F 28.9 °F 92% 29.74 in 0.5 mi NNW 5.8 mph - 0.01 in Fog , Snow Snow
11:42 AM 30.9 °F 24.3 °F 28.9 °F 92% 29.72 in 0.2 mi NNW 6.9 mph - 0.03 in Fog , Snow Snow
11:53 AM 30.9 °F 23.5 °F 28.9 °F 92% 29.77 in 0.2 mi North 8.1 mph - 0.05 in Fog , Snow Snow
12:53 PM 32.0 °F 25.6 °F 30.0 °F 92% 29.71 in 0.2 mi NNW 6.9 mph - 0.09 in Fog , Snow Snow
1:22 PM 32.0 °F 26.4 °F 30.0 °F 92% 29.64 in 0.2 mi North 5.8 mph - 0.06 in Fog , Snow Heavy Snow
1:53 PM 32.0 °F 26.4 °F 30.0 °F 92% 29.69 in 0.2 mi NNW 5.8 mph - 0.13 in Fog , Snow Snow
2:07 PM 30.9 °F 25.2 °F 30.0 °F 96% 29.64 in 0.2 mi NNW 5.8 mph - 0.02 in Fog , Snow Snow
2:23 PM 32.0 °F 26.4 °F 30.0 °F 92% 29.63 in 0.2 mi NNW 5.8 mph - 0.05 in Fog , Snow Light Snow
2:53 PM 32.0 °F 25.6 °F 30.0 °F 92% 29.69 in 0.2 mi North 6.9 mph - 0.10 in Fog , Snow Snow
3:53 PM 32.0 °F 25.6 °F 30.9 °F 96% 29.69 in 0.2 mi NNW 6.9 mph - 0.07 in Snow Light Snow
4:53 PM 32.0 °F 24.8 °F 30.0 °F 92% 29.69 in 1.8 mi North 8.1 mph - 0.01 in Snow Light Snow
5:18 PM 32.0 °F 25.6 °F 30.9 °F 96% 29.63 in 3.0 mi NNW 6.9 mph - 0.00 in Snow Light Snow
5:53 PM 32.0 °F 24.8 °F 30.9 °F 96% 29.69 in 5.0 mi NNW 8.1 mph - 0.00 in Snow Light Snow
6:53 PM 32.0 °F 24.2 °F 30.0 °F 92% 29.70 in 3.0 mi North 9.2 mph - 0.00 in Snow Light Snow
7:35 PM 32.0 °F 24.2 °F 30.0 °F 92% 29.65 in 1.0 mi NNW 9.2 mph - 0.00 in Snow Light Snow
7:53 PM 32.0 °F 23.6 °F 30.0 °F 92% 29.70 in 1.0 mi NNW 10.4 mph - 0.01 in Snow Light Snow
8:53 PM 32.0 °F 24.8 °F 28.9 °F 88% 29.71 in 1.5 mi NNW 8.1 mph - 0.00 in Snow Light Snow
9:36 PM 30.9 °F 24.3 °F 28.9 °F 92% 29.67 in 2.0 mi NNW 6.9 mph - 0.00 in Snow Light Snow
9:53 PM 30.9 °F 23.5 °F 28.9 °F 92% 29.72 in 1.5 mi North 8.1 mph - 0.00 in Snow Light Snow
10:10 PM 32.0 °F 27.5 °F 28.9 °F 88% 29.68 in 1.0 mi NW 4.6 mph - 0.01 in Snow Light Snow
10:25 PM 32.0 °F 27.5 °F 28.9 °F 88% 29.68 in 2.0 mi NW 4.6 mph - 0.01 in Snow Light Snow
10:43 PM 32.0 °F 27.5 °F 28.9 °F 88% 29.68 in 4.0 mi NNW 4.6 mph - 0.02 in Snow Light Snow
10:53 PM 32.0 °F 27.5 °F 28.9 °F 88% 29.74 in 7.0 mi NNW 4.6 mph - 0.02 in   Overcast
11:09 PM 30.9 °F 27.5 °F 28.9 °F 92% 29.68 in 8.0 mi NNW 3.5 mph - 0.00 in   Overcast
11:53 PM 30.9 °F 26.2 °F 28.9 °F 92% 29.72 in 3.0 mi NNW 4.6 mph - 0.00 in Snow Light Snow